Regional Weather Roundup
Issued by NWS Columbia, SC

Home | Current Version | Previous Version | Text Only | Print | Product List | Glossary On
Versions: 1 2 3 4 5 6 7 8 9 10 11 12 13 14 15 16 17 18 19 20 21 22 23 24 25 26 27 28 29 30 31 32 33 34 35 36 37 38 39 40 41 42 43 44 45 46 47 48 49 50
000
ASUS42 KCAE 280510
RWRCAE
REGIONAL WEATHER ROUNDUP
NATIONAL WEATHER SERVICE COLUMBIA SC
100 AM EDT THU AUG 28 2014

NOTE: "FAIR" INDICATES FEW OR NO CLOUDS BELOW 12,000 FEET WITH NO
SIGNIFICANT WEATHER AND/OR OBSTRUCTIONS TO VISIBILITY.

NOT ALL STATIONS ARE QUALITY CONTROLLED BY THE NATIONAL
WEATHER SERVICE. USE DATA WITH CAUTION...ESPECIALLY
DEWPOINT OBSERVATIONS.

SCZ001>056-GAZ040-063>065-077-280600-
...UPSTATE SOUTH CAROLINA...

CITY           SKY/WX    TMP DP  RH WIND       PRES   REMARKS
ANDERSON       CLEAR     66  60  81 CALM      30.05S
LIBERTY        FAIR      64  32  30 CALM      30.06R
SPARTANBURG    FAIR      68  63  83 CALM      30.04S
CLEMSON        CLEAR     75  69  81 CALM      30.06S
GREENVILLE     CLEAR     72  63  73 W5        30.06S
GREENWOOD      CLEAR     62  56  80 CALM      30.05S
GREER          CLEAR     68  61  78 CALM      30.04S
ROCK HILL      CLEAR     62  60  93 CALM      30.04S
LAURENS        FAIR      63  50  63 CALM      30.05S


...CENTRAL SOUTH CAROLINA...

CITY           SKY/WX    TMP DP  RH WIND       PRES   REMARKS
COLUMBIA APT   CLEAR     67  61  81 S3        30.01S
COLUMBIA OWENS CLEAR     69  60  73 CALM      30.02S
DARLINGTON     CLEAR     63  57  82 CALM      30.01F
FLORENCE       CLEAR     65  58  78 CALM      30.00S
MCENTIRE ANGB  CLEAR     65  60  83 CALM      30.02S
ORANGEBURG     CLEAR     66  61  84 CALM      30.02F
SUMTER SHAW    CLEAR     67  62  83 SW2       30.00S
NEWBERRY       FAIR      63  54  72 CALM      30.06S
AIKEN          FAIR      68  59  73 CALM      30.06F
BARNWELL       FAIR      64  57  77 CALM      30.03R
MANNING        FAIR      64 N/A N/A CALM      30.01S
CAMDEN         FAIR      64  57  77 CALM      30.02F
LANCASTER      FAIR      63  63 100 CALM      30.03S
WINNSBORO      FAIR      68  59  73 CALM      30.02F


...EASTERN AND COASTAL SOUTH CAROLINA...

CITY           SKY/WX    TMP DP  RH WIND       PRES   REMARKS
MYRTLE BEACH   CLEAR     70  64  83 CALM      29.99F
CONWAY         FAIR      63  63 100 CALM      30.00F
MARION         FAIR      64  61  88 CALM      30.00S
HARTSVILLE     FAIR      66  45  45 CALM      30.02S
FLORENCE       CLEAR     65  58  78 CALM      30.00S
DARLINGTON     CLEAR     63  57  82 CALM      30.01F
CHARLESTON APT CLEAR     72  66  81 CALM      30.01S
MOUNT PLEASANT FAIR      70  68  94 CALM      30.01F
WALTERBORO     CLEAR     66 N/A N/A CALM      30.02S
BEAUFORT       CLEAR     71  67  87 CALM      30.01S


...EASTERN GEORGIA...

CITY           SKY/WX    TMP DP  RH WIND       PRES   REMARKS
AUGUSTA BUSH F CLEAR     63  59  87 CALM      30.01S
AUGUSTA DANIEL CLEAR     78  56  46 E6        30.03S
THOMSON        CLEAR     64  64 100 CALM      30.07F
WASHINGTON     FAIR      68  55  64 CALM      30.03F
SYLVANIA       CLEAR     67  65  94 CALM      30.03S
STATESBORO     CLEAR     66  66 100 CALM      30.03R
SAVANNAH       CLEAR     71  65  81 CALM      30.02S


...SOUTHERN NORTH CAROLINA...

CITY           SKY/WX    TMP DP  RH WIND       PRES   REMARKS
CHARLOTTE      CLEAR     66  62  87 CALM      30.03F
MONROE         CLEAR     64  58  80 CALM      30.02S
WADESBORO      CLEAR     64  61  91 CALM      30.00S
ROCKINGHAM     CLEAR     67  59  76 CALM      30.00S
RUTHERFORDTON  CLEAR     63  62  96 W8        30.07R
ASHEVILLE      CLEAR     64  60  87 CALM      30.13S

$$


USA.gov is the U.S. government's official web portal to all federal, state and local government web resources and services.